| time (UTC) | temp C | wind direction | speed KPH | gust KPH | rain 1hr cm | rain 24hr cm | rain mn cm | humidity % | barometer mb |
| 20260508124517 | 5 | 295 | 4.8 | 8.0 | 0.00 | 0.03 | 0.03 | 86 | 1012.2 |
| 20260508123020 | 4 | 343 | 0.0 | 6.4 | 0.00 | 0.03 | 0.03 | 92 | 1012.0 |
| 20260508121523 | 4 | 319 | 3.2 | 11.3 | 0.00 | 0.03 | 0.03 | 93 | 1012.0 |
| 20260508120035 | 3 | 294 | 1.6 | 6.4 | 0.00 | 0.03 | 0.03 | 95 | 1012.1 |
| 20260508114513 | 3 | 331 | 0.0 | 4.8 | 0.00 | 0.03 | 0.03 | 96 | 1012.1 |
| 20260508113019 | 2 | 177 | 1.6 | 3.2 | 0.00 | 0.03 | 0.03 | 96 | 1012.2 |
| 20260508111522 | 2 | 273 | 0.0 | 1.6 | 0.00 | 0.03 | 0.03 | 96 | 1012.3 |
| 20260508110025 | 1 | 120 | 0.0 | 4.8 | 0.00 | 0.03 | 0.03 | 96 | 1012.3 |
| 20260508104510 | 1 | 188 | 0.0 | 3.2 | 0.00 | 0.03 | 0.03 | 96 | 1012.2 |
| 20260508103027 | 0 | 188 | 0.0 | 1.6 | 0.00 | 0.03 | 0.03 | 95 | 1012.1 |
| 20260508101533 | 0 | 188 | 0.0 | 3.2 | 0.00 | 0.03 | 0.03 | 95 | 1012.1 |
| 20260508100027 | 0 | 188 | 0.0 | 3.2 | 0.00 | 0.03 | 0.03 | 94 | 1012.0 |
| 20260508094527 | 0 | 199 | 0.0 | 3.2 | 0.00 | 0.03 | 0.03 | 94 | 1011.9 |
| 20260508093011 | 0 | 198 | 0.0 | 3.2 | 0.00 | 0.03 | 0.03 | 94 | 1011.8 |
| 20260508091516 | 1 | 250 | 0.0 | 0.0 | 0.00 | 0.03 | 0.03 | 93 | 1011.8 |
| 20260508090024 | 1 | 250 | 0.0 | 3.2 | 0.00 | 0.03 | 0.03 | 92 | 1011.8 |
| 20260508084525 | 1 | 250 | 0.0 | 3.2 | 0.00 | 0.03 | 0.03 | 92 | 1011.8 |
| 20260508083012 | 2 | 250 | 0.0 | 4.8 | 0.00 | 0.03 | 0.03 | 92 | 1011.8 |
| 20260508081514 | 2 | 271 | 0.0 | 3.2 | 0.00 | 0.03 | 0.03 | 91 | 1011.8 |
| 20260508080020 | 2 | 279 | 0.0 | 4.8 | 0.00 | 0.03 | 0.03 | 91 | 1011.8 |
| 20260508074522 | 2 | 271 | 1.6 | 6.4 | 0.00 | 0.03 | 0.03 | 91 | 1011.7 |
| 20260508073028 | 2 | 246 | 1.6 | 4.8 | 0.00 | 0.03 | 0.03 | 91 | 1011.7 |
| 20260508071513 | 2 | 246 | 0.0 | 6.4 | 0.00 | 0.03 | 0.03 | 91 | 1011.6 |
| 20260508070015 | 3 | 296 | 1.6 | 11.3 | 0.00 | 0.03 | 0.03 | 91 | 1011.7 |
| 20260508064532 | 3 | 248 | 1.6 | 4.8 | 0.03 | 0.03 | 0.03 | 89 | 1011.7 |
| 20260508063025 | 3 | 252 | 1.6 | 4.8 | 0.03 | 0.03 | 0.03 | 88 | 1011.6 |
| 20260508061514 | 3 | 302 | 3.2 | 9.7 | 0.03 | 0.03 | 0.03 | 87 | 1011.7 |
| 20260508060016 | 3 | 307 | 1.6 | 16.1 | 0.03 | 0.03 | 0.03 | 86 | 1011.7 |
| 20260508054517 | 3 | 227 | 1.6 | 12.9 | 0.00 | 0.00 | 0.00 | 84 | 1011.5 |
| 20260508053024 | 4 | 286 | 3.2 | 14.5 | 0.00 | 0.00 | 0.00 | 80 | 1011.7 |
| 20260508051525 | 4 | 319 | 4.8 | 11.3 | 0.00 | 0.00 | 0.00 | 79 | 1011.4 |
| 20260508050018 | 4 | 299 | 4.8 | 14.5 | 0.00 | 0.00 | 0.00 | 76 | 1011.5 |
| 20260508044516 | 4 | 296 | 4.8 | 19.3 | 0.00 | 0.00 | 0.00 | 73 | 1011.4 |
| 20260508043021 | 4 | 303 | 8.0 | 14.5 | 0.00 | 0.00 | 0.00 | 72 | 1011.4 |
| 20260508041524 | 3 | 268 | 1.6 | 8.0 | 0.00 | 0.00 | 0.00 | 75 | 1011.1 |
| 20260508040036 | 3 | 273 | 1.6 | 6.4 | 0.00 | 0.00 | 0.00 | 75 | 1011.1 |
| 20260508034511 | 2 | 270 | 1.6 | 8.0 | 0.00 | 0.00 | 0.00 | 79 | 1011.1 |
| 20260508033021 | 2 | 297 | 0.0 | 3.2 | 0.00 | 0.00 | 0.00 | 80 | 1011.1 |
| 20260508031529 | 2 | 297 | 0.0 | 1.6 | 0.00 | 0.00 | 0.00 | 76 | 1011.0 |
| 20260508030025 | 2 | 297 | 0.0 | 0.0 | 0.00 | 0.00 | 0.00 | 74 | 1010.9 |
| 20260508024540 | 3 | 297 | 0.0 | 0.0 | 0.00 | 0.00 | 0.00 | 70 | 1011.0 |
| 20260508023024 | 3 | 297 | 0.0 | 1.6 | 0.00 | 0.00 | 0.00 | 66 | 1011.0 |
| 20260508021519 | 4 | 297 | 0.0 | 1.6 | 0.00 | 0.00 | 0.00 | 67 | 1011.0 |
| 20260508020022 | 4 | 297 | 0.0 | 3.2 | 0.00 | 0.00 | 0.00 | 63 | 1011.1 |
| 20260508014542 | 5 | 297 | 0.0 | 3.2 | 0.00 | 0.00 | 0.00 | 63 | 1011.2 |
| 20260508013029 | 5 | 297 | 0.0 | 3.2 | 0.00 | 0.00 | 0.00 | 61 | 1011.2 |
| 20260508011520 | 6 | 297 | 0.0 | 3.2 | 0.00 | 0.00 | 0.00 | 56 | 1011.0 |
| 20260508010027 | 6 | 277 | 0.0 | 4.8 | 0.00 | 0.00 | 0.00 | 58 | 1011.0 |
| 20260508004527 | 6 | 319 | 1.6 | 9.7 | 0.00 | 0.00 | 0.00 | 53 | 1010.7 |
| 20260508003031 | 7 | 313 | 3.2 | 8.0 | 0.00 | 0.00 | 0.00 | 53 | 1010.7 |
| 20260508001512 | 7 | 326 | 3.2 | 8.0 | 0.00 | 0.00 | 0.00 | 50 | 1010.6 |
| 20260508000019 | 7 | 340 | 3.2 | 14.5 | 0.00 | 0.00 | 0.00 | 47 | 1010.4 |
| 20260507234504 | 7 | 13 | 4.8 | 12.9 | 0.00 | 0.00 | 0.00 | 46 | 1010.4 |
| 20260507233006 | 8 | 10 | 6.4 | 16.1 | 0.00 | 0.00 | 0.00 | 44 | 1010.2 |
| 20260507231512 | 8 | 342 | 4.8 | 17.7 | 0.00 | 0.00 | 0.00 | 43 | 1010.2 |
| 20260507230017 | 8 | 347 | 6.4 | 16.1 | 0.00 | 0.00 | 0.00 | 42 | 1010.2 |
| 20260507224520 | 8 | 236 | 4.8 | 16.1 | 0.00 | 0.00 | 0.00 | 43 | 1010.2 |
| 20260507223004 | 8 | 295 | 3.2 | 12.9 | 0.00 | 0.00 | 0.00 | 43 | 1010.3 |
| 20260507221510 | 8 | 351 | 4.8 | 19.3 | 0.00 | 0.00 | 0.00 | 42 | 1010.2 |
| 20260507220014 | 9 | 318 | 8.0 | 20.9 | 0.00 | 0.00 | 0.00 | 40 | 1010.2 |
| 20260507214519 | 9 | 350 | 6.4 | 14.5 | 0.00 | 0.00 | 0.00 | 39 | 1010.4 |
| 20260507213024 | 9 | 28 | 4.8 | 20.9 | 0.00 | 0.00 | 0.00 | 41 | 1010.4 |
| 20260507211505 | 10 | 267 | 9.7 | 20.9 | 0.00 | 0.00 | 0.00 | 41 | 1010.3 |
| 20260507210011 | 10 | 321 | 16.1 | 25.7 | 0.00 | 0.00 | 0.00 | 36 | 1010.3 |
| 20260507204515 | 10 | 317 | 12.9 | 24.1 | 0.00 | 0.00 | 0.00 | 39 | 1010.3 |
| 20260507203019 | 10 | 300 | 11.3 | 24.1 | 0.00 | 0.00 | 0.00 | 41 | 1010.3 |
| 20260507201527 | 10 | 323 | 8.0 | 30.6 | 0.00 | 0.00 | 0.00 | 44 | 1010.6 |
| 20260507200010 | 10 | 305 | 16.1 | 29.0 | 0.00 | 0.00 | 0.00 | 43 | 1010.7 |
| 20260507194512 | 10 | 350 | 11.3 | 25.7 | 0.00 | 0.00 | 0.00 | 45 | 1010.9 |
| 20260507193020 | 10 | 306 | 9.7 | 24.1 | 0.00 | 0.00 | 0.00 | 46 | 1011.0 |
| 20260507191523 | 10 | 9 | 9.7 | 22.5 | 0.00 | 0.00 | 0.00 | 48 | 1011.2 |
| 20260507190028 | 9 | 341 | 16.1 | 25.7 | 0.00 | 0.00 | 0.00 | 50 | 1011.5 |
| 20260507184513 | 9 | 355 | 14.5 | 24.1 | 0.00 | 0.00 | 0.00 | 50 | 1011.5 |
| 20260507183014 | 8 | 322 | 14.5 | 24.1 | 0.00 | 0.00 | 0.00 | 51 | 1011.7 |
| 20260507181520 | 10 | 308 | 12.9 | 24.1 | 0.00 | 0.00 | 0.00 | 53 | 1011.6 |
| 20260507180023 | 8 | 293 | 12.9 | 27.4 | 0.00 | 0.00 | 0.00 | 52 | 1011.7 |
| 20260507174526 | 8 | 326 | 6.4 | 20.9 | 0.00 | 0.00 | 0.00 | 53 | 1011.6 |
| 20260507173013 | 8 | 349 | 11.3 | 29.0 | 0.00 | 0.00 | 0.00 | 53 | 1011.7 |
| 20260507171516 | 8 | 251 | 8.0 | 20.9 | 0.00 | 0.00 | 0.00 | 54 | 1011.7 |
| 20260507170025 | 8 | 328 | 8.0 | 24.1 | 0.00 | 0.00 | 0.00 | 57 | 1011.8 |
| 20260507164525 | 8 | 338 | 12.9 | 24.1 | 0.00 | 0.00 | 0.00 | 57 | 1011.9 |
| 20260507163027 | 8 | 319 | 11.3 | 25.7 | 0.00 | 0.00 | 0.00 | 56 | 1012.1 |
| 20260507161516 | 8 | 262 | 11.3 | 27.4 | 0.00 | 0.00 | 0.00 | 56 | 1012.3 |
| 20260507160021 | 7 | 348 | 9.7 | 17.7 | 0.00 | 0.00 | 0.00 | 59 | 1012.4 |
| 20260507154526 | 7 | 19 | 6.4 | 16.1 | 0.00 | 0.00 | 0.00 | 62 | 1012.4 |
| 20260507153003 | 7 | 316 | 12.9 | 19.3 | 0.00 | 0.00 | 0.00 | 58 | 1012.7 |
| 20260507151505 | 6 | 315 | 11.3 | 19.3 | 0.00 | 0.00 | 0.00 | 59 | 1012.8 |
| 20260507150010 | 6 | 307 | 8.0 | 20.9 | 0.00 | 0.00 | 0.00 | 61 | 1013.1 |
| 20260507144505 | 5 | 286 | 4.8 | 12.9 | 0.00 | 0.00 | 0.00 | 61 | 1013.2 |
| 20260507143004 | 5 | 319 | 4.8 | 11.3 | 0.00 | 0.00 | 0.00 | 60 | 1013.3 |
| 20260507141503 | 5 | 316 | 3.2 | 12.9 | 0.00 | 0.00 | 0.00 | 62 | 1013.3 |
| 20260507140004 | 4 | 296 | 3.2 | 16.1 | 0.00 | 0.03 | 0.00 | 64 | 1013.3 |
| 20260507134503 | 5 | 323 | 8.0 | 22.5 | 0.00 | 0.05 | 0.00 | 61 | 1013.5 |
| 20260507133003 | 5 | 302 | 11.3 | 19.3 | 0.00 | 0.08 | 0.00 | 62 | 1013.3 |
| 20260507131504 | 5 | 319 | 6.4 | 17.7 | 0.00 | 0.10 | 0.00 | 66 | 1013.2 |
| 20260507130005 | 4 | 277 | 6.4 | 12.9 | 0.00 | 0.10 | 0.00 | 65 | 1013.1 |